Weather History for KM40 - February, 2013

Change the Weather History Date:

Wednesday, February 13, 2013

  Actual Average (KTUP) Record (KTUP)
Temperature  
Mean Temperature 45 °F 45 °F  
Max Temperature 48 °F 56 °F 82 °F (1962)
Min Temperature 42 °F 35 °F 17 °F (1988)
Degree Days  
Heating Degree Days 20 20  
Month to date heating degree days 273  
Since 1 July heating degree days 2169  
Cooling Degree Days 0 0  
Month to date cooling degree days 0  
Year to date cooling degree days 1  
Moisture  
Dew Point 35 °F    
Average Humidity 70    
Maximum Humidity 81    
Minimum Humidity 62    
Precipitation  
Precipitation 0.00 in 0.17 in 3.74 in (1950)
Month to date precipitation 2.13  
Year to date precipitation 6.61  
Snow  
Snow 0.00 in 0.00 in T in (2012)
Month to date snowfall 0.3  
Since 1 July snowfall 1.5  
Snow Depth -    
Sea Level Pressure  
Sea Level Pressure 29.94 in    
Wind  
Wind Speed 5 mph (WNW)    
Max Wind Speed 12 mph    
Max Gust Speed 23 mph    
Visibility 8 miles    
Events      
T = Trace of Precipitation, MM = Missing Value Source: NWS Daily Summary

Daily Weather History Graph

Daily Weather History Graph

Search for Another Location

Airport or City:

Trip Planner

Search our weather history database for the weather conditions in past years. The results will help you decide how hot, cold, wet, or windy it might be!

Date:

Astronomy

Feb. 13, 2013 Rise Set
Actual Time 6:40 AM CST 5:36 PM CST
Civil Twilight 6:14 AM CST 6:02 PM CST
Nautical Twilight 5:45 AM CST 6:31 PM CST
Astronomical Twilight 5:16 AM CST 7:00 PM CST
Moon 8:22 AM CST (2/13) 9:24 PM CST (2/13)
Length of Visible Light 11h 47m
Length of Day
10h 56m
Waxing Crescent, 14% of the Moon is Illuminated
Feb 13
Waxing Crescent
Feb 17
First Quarter
Feb 25
Full
Mar 4
Last Quarter
Mar 11
New

Hourly Weather History & Observations

Time (CST) Temp. Windchill Dew Point Humidity Pressure Visibility Wind Dir Wind Speed Gust Speed Precip Events Conditions
12:15 AM 44.6 °F 43.1 °F 37.4 °F 76% 29.80 in 2.5 mi SSW 3.5 mph - N/A   Haze
12:35 AM 44.6 °F 43.1 °F 37.4 °F 76% 29.80 in 1.8 mi WSW 3.5 mph - N/A   Haze
12:55 AM 44.6 °F - 37.4 °F 76% 29.79 in 1.8 mi Calm Calm - N/A   Haze
1:15 AM 44.6 °F 43.1 °F 37.4 °F 76% 29.79 in 1.5 mi South 3.5 mph - N/A   Haze
1:35 AM 44.6 °F - 37.4 °F 76% 29.78 in 1.2 mi Calm Calm - N/A   Light Drizzle
1:55 AM 44.6 °F - 37.4 °F 76% 29.77 in 1.8 mi Calm Calm - N/A   Haze
2:15 AM 44.6 °F - 39.2 °F 81% 29.76 in 3.0 mi Calm Calm - N/A   Haze
2:35 AM 44.6 °F 42.2 °F 37.4 °F 76% 29.78 in 2.5 mi SSW 4.6 mph - N/A   Haze
2:55 AM 44.6 °F 42.2 °F 37.4 °F 76% 29.77 in 3.0 mi SSW 4.6 mph - N/A   Haze
3:15 AM 44.6 °F 43.1 °F 37.4 °F 76% 29.76 in 2.5 mi South 3.5 mph - N/A   Haze
3:35 AM 44.6 °F 41.4 °F 37.4 °F 76% 29.77 in 3.0 mi SSW 5.8 mph - N/A   Haze
3:55 AM 44.6 °F 41.4 °F 37.4 °F 76% 29.77 in 7.0 mi WSW 5.8 mph - N/A   Overcast
4:15 AM 44.6 °F 39.7 °F 37.4 °F 76% 29.79 in 8.0 mi WSW 9.2 mph - N/A   Overcast
4:35 AM 44.6 °F 40.2 °F 39.2 °F 81% 29.80 in 4.0 mi WSW 8.1 mph - N/A   Haze
4:55 AM 44.6 °F 39.7 °F 39.2 °F 81% 29.81 in 8.0 mi West 9.2 mph 17.3 mph N/A   Overcast
5:15 AM 44.6 °F 39.7 °F 39.2 °F 81% 29.82 in 10.0 mi WSW 9.2 mph - N/A   Overcast
5:35 AM 44.6 °F 39.7 °F 39.2 °F 81% 29.83 in 10.0 mi WSW 9.2 mph - N/A   Overcast
5:55 AM 44.6 °F 40.2 °F 37.4 °F 76% 29.84 in 10.0 mi WSW 8.1 mph - N/A   Overcast
6:15 AM 44.6 °F 40.7 °F 37.4 °F 76% 29.85 in 9.0 mi West 6.9 mph - N/A   Overcast
6:35 AM 44.6 °F 39.7 °F 37.4 °F 76% 29.86 in 5.0 mi West 9.2 mph - N/A   Haze
6:55 AM 44.6 °F 40.2 °F 37.4 °F 76% 29.86 in 8.0 mi WSW 8.1 mph - N/A   Overcast
7:35 AM 44.6 °F 42.2 °F 37.4 °F 76% 29.87 in 10.0 mi West 4.6 mph - N/A   Overcast
7:55 AM 44.6 °F 41.4 °F 37.4 °F 76% 29.88 in 10.0 mi West 5.8 mph - N/A   Overcast
8:15 AM 44.6 °F 39.2 °F 37.4 °F 76% 29.90 in 9.0 mi West 10.4 mph - N/A   Overcast
8:35 AM 46.4 °F 41.5 °F 37.4 °F 71% 29.90 in 10.0 mi WNW 10.4 mph 19.6 mph N/A   Overcast
8:55 AM 46.4 °F 41.5 °F 37.4 °F 71% 29.91 in 9.0 mi WNW 10.4 mph 23.0 mph N/A   Overcast
9:15 AM 46.4 °F 41.1 °F 35.6 °F 66% 29.91 in 10.0 mi WNW 11.5 mph 19.6 mph N/A   Overcast
9:35 AM 44.6 °F 38.8 °F 35.6 °F 71% 29.92 in 10.0 mi WNW 11.5 mph - N/A   Overcast
10:15 AM 46.4 °F 42.4 °F 35.6 °F 66% 29.94 in 9.0 mi NW 8.1 mph - N/A   Overcast
10:35 AM 46.4 °F 41.1 °F 37.4 °F 71% 29.95 in 10.0 mi WNW 11.5 mph 18.4 mph N/A   Overcast
10:55 AM 46.4 °F 41.1 °F 35.6 °F 66% 29.96 in 9.0 mi WNW 11.5 mph 19.6 mph N/A   Overcast
11:15 AM 46.4 °F 41.5 °F 35.6 °F 66% 29.96 in 10.0 mi NW 10.4 mph 19.6 mph N/A   Overcast
11:35 AM 48.2 °F - 35.6 °F 62% 29.96 in 9.0 mi NW 10.4 mph - N/A   Mostly Cloudy
11:55 AM 46.4 °F 41.5 °F 35.6 °F 66% 29.97 in 10.0 mi NW 10.4 mph 19.6 mph N/A   Overcast
12:15 PM 44.6 °F 39.2 °F 33.8 °F 66% 29.96 in 9.0 mi NW 10.4 mph - N/A   Overcast
12:35 PM 44.6 °F 40.7 °F 33.8 °F 66% 29.96 in 9.0 mi NW 6.9 mph - N/A   Overcast
12:55 PM 46.4 °F 41.9 °F 33.8 °F 62% 29.96 in 9.0 mi NW 9.2 mph - N/A   Overcast
1:15 PM 44.6 °F 39.2 °F 33.8 °F 66% 29.96 in 9.0 mi NW 10.4 mph 16.1 mph N/A   Overcast
1:35 PM 46.4 °F 41.5 °F 33.8 °F 62% 29.96 in 9.0 mi WNW 10.4 mph - N/A   Overcast
1:55 PM 44.6 °F 38.8 °F 33.8 °F 66% 29.97 in 10.0 mi NW 11.5 mph 20.7 mph N/A   Overcast
2:15 PM 44.6 °F 39.2 °F 33.8 °F 66% 29.98 in 9.0 mi NW 10.4 mph 16.1 mph N/A   Overcast
2:35 PM 44.6 °F 39.2 °F 33.8 °F 66% 29.98 in 9.0 mi NW 10.4 mph - N/A   Overcast
2:55 PM 46.4 °F 41.5 °F 33.8 °F 62% 29.98 in 9.0 mi NNW 10.4 mph - N/A   Overcast
3:15 PM 44.6 °F 39.7 °F 33.8 °F 66% 29.98 in 9.0 mi North 9.2 mph - N/A   Overcast
3:35 PM 44.6 °F 40.2 °F 33.8 °F 66% 30.00 in 9.0 mi NNW 8.1 mph - N/A   Overcast
3:55 PM 44.6 °F 40.2 °F 33.8 °F 66% 30.00 in 9.0 mi NNW 8.1 mph - N/A   Overcast
4:15 PM 44.6 °F 39.7 °F 33.8 °F 66% 30.00 in 9.0 mi NW 9.2 mph - N/A   Overcast
4:35 PM 44.6 °F 40.2 °F 33.8 °F 66% 30.00 in 9.0 mi NW 8.1 mph - N/A   Mostly Cloudy
4:55 PM 44.6 °F 40.7 °F 33.8 °F 66% 30.01 in 8.0 mi NNW 6.9 mph - N/A   Mostly Cloudy
5:15 PM 44.6 °F 42.2 °F 33.8 °F 66% 30.01 in 8.0 mi NNW 4.6 mph - N/A   Mostly Cloudy
5:35 PM 44.6 °F 43.1 °F 33.8 °F 66% 30.02 in 8.0 mi NW 3.5 mph - N/A   Overcast
5:55 PM 44.6 °F 43.1 °F 33.8 °F 66% 30.02 in 10.0 mi NW 3.5 mph - N/A   Overcast
6:15 PM 44.6 °F - 33.8 °F 66% 30.02 in 9.0 mi Calm Calm - N/A   Overcast
6:35 PM 42.8 °F - 32.0 °F 66% 30.03 in 9.0 mi Calm Calm - N/A   Overcast
6:55 PM 42.8 °F - 32.0 °F 66% 30.04 in 9.0 mi Calm Calm - N/A   Overcast
7:15 PM 42.8 °F 41.1 °F 32.0 °F 66% 30.04 in 9.0 mi WNW 3.5 mph - N/A   Overcast
7:35 PM 42.8 °F - 32.0 °F 66% 30.05 in 8.0 mi Calm Calm - N/A   Overcast
7:55 PM 42.8 °F - 32.0 °F 66% 30.05 in 8.0 mi Calm Calm - N/A   Overcast
8:15 PM 42.8 °F 41.1 °F 33.8 °F 70% 30.06 in 8.0 mi WNW 3.5 mph - N/A   Overcast
8:35 PM 42.8 °F - 33.8 °F 70% 30.06 in 8.0 mi Calm Calm - N/A   Overcast
8:55 PM 42.8 °F 41.1 °F 32.0 °F 66% 30.07 in 7.0 mi WNW 3.5 mph - N/A   Overcast
9:15 PM 42.8 °F 41.1 °F 33.8 °F 70% 30.07 in 8.0 mi West 3.5 mph - N/A   Overcast
9:35 PM 42.8 °F - 33.8 °F 70% 30.07 in 8.0 mi Calm Calm - N/A   Overcast
9:55 PM 42.8 °F 41.1 °F 32.0 °F 66% 30.08 in 8.0 mi West 3.5 mph - N/A   Overcast
10:15 PM 42.8 °F 41.1 °F 33.8 °F 70% 30.08 in 8.0 mi West 3.5 mph - N/A   Overcast
10:35 PM 42.8 °F 41.1 °F 32.0 °F 66% 30.09 in 8.0 mi West 3.5 mph - N/A   Overcast
10:55 PM 42.8 °F - 32.0 °F 66% 30.09 in 8.0 mi Calm Calm - N/A   Overcast
11:15 PM 42.8 °F - 32.0 °F 66% 30.09 in 8.0 mi Calm Calm - N/A   Overcast
11:35 PM 42.8 °F 41.1 °F 32.0 °F 66% 30.09 in 9.0 mi WNW 3.5 mph - N/A   Overcast
11:55 PM 42.8 °F 41.1 °F 32.0 °F 66% 30.09 in 9.0 mi WNW 3.5 mph - N/A   Overcast